• In Kazakhstan
  • List of Countries
  • For 7 days
  • Water Temperature
  • Weather Map
  • News
  • Weather Widgets
  • user-avatar
    Login

    Hourly Weather Giumri

    Today, 25 February, Tuesday

    Time Temperature Precipitation Wind Pressure Humidity
    00:00 -1°C° 0 mm 3 mps 628 mmHg 84%
    01:00 -1°C° 0 mm 3 mps 627 mmHg 84%
    02:00 -1°C° 0 mm 3 mps 627 mmHg 84%
    03:00 -1°C° 0 mm 3 mps 626 mmHg 83%
    04:00 -1°C° 0.2 mm 3 mps 626 mmHg 85%
    05:00 -1°C° 0.2 mm 2 mps 626 mmHg 87%
    06:00 -1°C° 0.2 mm 2 mps 626 mmHg 90%
    07:00 -1°C° 1.2 mm 3 mps 626 mmHg 90%
    08:00 -1°C° 1.2 mm 3 mps 626 mmHg 91%
    09:00 -2°C° 1.2 mm 4 mps 626 mmHg 92%
    10:00 -3°C° 1.1 mm 4 mps 626 mmHg 90%
    11:00 -3°C° 1.1 mm 4 mps 626 mmHg 88%
    12:00 -3°C° 1.1 mm 4 mps 627 mmHg 85%
    13:00 -3°C° 0.3 mm 4 mps 627 mmHg 80%
    14:00 -3°C° 0.3 mm 4 mps 628 mmHg 75%
    15:00 -4°C° 0.3 mm 5 mps 628 mmHg 70%
    16:00 -5°C° 0 mm 4 mps 628 mmHg 71%
    17:00 -6°C° 0 mm 3 mps 628 mmHg 73%
    18:00 -7°C° 0 mm 2 mps 629 mmHg 74%
    19:00 -8°C° 0 mm 2 mps 629 mmHg 75%
    20:00 -8°C° 0 mm 2 mps 629 mmHg 76%
    21:00 -9°C° 0 mm 2 mps 630 mmHg 77%
    22:00 -10°C° 0 mm 2 mps 630 mmHg 76%
    23:00 -10°C° 0 mm 2 mps 630 mmHg 76%

    Tomorrow, 26 February, Wednesday

    Time Temperature Precipitation Wind Pressure Humidity
    00:00 -12°C° 0 mm 2 mps 630 mmHg 75%
    01:00 -10°C° 0 mm 1 mps 629 mmHg 73%
    02:00 -10°C° 0 mm 1 mps 629 mmHg 72%
    03:00 -10°C° 0 mm 1 mps 629 mmHg 71%
    04:00 -10°C° 0 mm 1 mps 629 mmHg 68%
    05:00 -10°C° 0 mm 1 mps 629 mmHg 66%
    06:00 -10°C° 0 mm 1 mps 629 mmHg 63%
    07:00 -9°C° 0 mm 1 mps 630 mmHg 62%
    08:00 -8°C° 0 mm 1 mps 631 mmHg 61%
    09:00 -6°C° 0 mm 0 mps 631 mmHg 60%
    10:00 -5°C° 0 mm 0 mps 632 mmHg 59%
    11:00 -4°C° 0 mm 0 mps 632 mmHg 59%
    12:00 -3°C° 0 mm 0 mps 632 mmHg 58%
    13:00 -2°C° 0 mm 0 mps 632 mmHg 60%
    14:00 -2°C° 0 mm 0 mps 632 mmHg 62%
    15:00 -1°C° 0 mm 0 mps 632 mmHg 64%
    16:00 -3°C° 0 mm 0 mps 632 mmHg 64%
    17:00 -4°C° 0 mm 0 mps 632 mmHg 64%
    18:00 -6°C° 0 mm 0 mps 632 mmHg 64%
    19:00 -6°C° 0 mm 0 mps 632 mmHg 62%
    20:00 -6°C° 0 mm 1 mps 632 mmHg 60%
    21:00 -6°C° 0 mm 1 mps 633 mmHg 58%
    22:00 -6°C° 0 mm 1 mps 633 mmHg 59%
    23:00 -6°C° 0 mm 1 mps 633 mmHg 60%

    Day after tomorrow, 27 February, Thursday

    Time Temperature Precipitation Wind Pressure Humidity
    00:00 -7°C° 0 mm 1 mps 632 mmHg 61%
    01:00 -7°C° 0 mm 1 mps 632 mmHg 62%
    02:00 -7°C° 0 mm 1 mps 632 mmHg 64%
    03:00 -7°C° 0 mm 1 mps 632 mmHg 66%
    04:00 -7°C° 0 mm 1 mps 632 mmHg 65%
    05:00 -7°C° 0 mm 1 mps 632 mmHg 65%
    06:00 -7°C° 0 mm 1 mps 632 mmHg 65%
    07:00 -6°C° 0 mm 1 mps 632 mmHg 65%
    08:00 -4°C° 0 mm 1 mps 633 mmHg 65%
    09:00 -3°C° 0 mm 1 mps 633 mmHg 65%
    10:00 -2°C° 0 mm 1 mps 633 mmHg 64%
    11:00 -1°C° 0 mm 1 mps 633 mmHg 63%
    12:00 0°C° 0 mm 1 mps 633 mmHg 62%
    13:00 +1°C° 0 mm 1 mps 633 mmHg 63%
    14:00 +1°C° 0 mm 1 mps 632 mmHg 63%
    15:00 +2°C° 0 mm 1 mps 632 mmHg 63%
    16:00 0°C° 0 mm 1 mps 632 mmHg 63%
    17:00 -1°C° 0 mm 1 mps 631 mmHg 62%
    18:00 -2°C° 0 mm 1 mps 631 mmHg 61%
    19:00 -2°C° 0 mm 1 mps 631 mmHg 61%
    20:00 -2°C° 0 mm 1 mps 631 mmHg 60%
    21:00 -2°C° 0 mm 1 mps 631 mmHg 59%
    22:00 -2°C° 0 mm 1 mps 631 mmHg 60%
    23:00 -2°C° 0 mm 1 mps 630 mmHg 61%

    28 February, Friday

    Time Temperature Precipitation Wind Pressure Humidity
    00:00 -3°C° 0 mm 1 mps 630 mmHg 61%
    01:00 -3°C° 0 mm 1 mps 629 mmHg 62%
    02:00 -5°C° 0 mm 2 mps 629 mmHg 63%
    03:00 -5°C° 0 mm 2 mps 629 mmHg 63%
    04:00 -5°C° 0 mm 2 mps 629 mmHg 63%
    05:00 -5°C° 0 mm 2 mps 628 mmHg 62%
    06:00 -5°C° 0 mm 2 mps 628 mmHg 62%
    07:00 -4°C° 0 mm 2 mps 628 mmHg 62%
    08:00 -3°C° 0 mm 2 mps 629 mmHg 63%
    09:00 -2°C° 0 mm 2 mps 629 mmHg 63%
    10:00 -1°C° 0 mm 2 mps 629 mmHg 63%
    11:00 0°C° 0 mm 3 mps 629 mmHg 62%
    12:00 +1°C° 0 mm 3 mps 629 mmHg 62%
    13:00 +2°C° 0 mm 3 mps 629 mmHg 64%
    14:00 +2°C° 0 mm 3 mps 629 mmHg 65%
    15:00 +3°C° 0 mm 4 mps 629 mmHg 66%
    16:00 +2°C° 0 mm 3 mps 629 mmHg 70%
    17:00 +2°C° 0 mm 2 mps 629 mmHg 74%
    18:00 +1°C° 0 mm 2 mps 629 mmHg 78%
    19:00 -1°C° 0.2 mm 2 mps 629 mmHg 80%
    20:00 -1°C° 0.2 mm 2 mps 629 mmHg 82%
    21:00 -1°C° 0.2 mm 2 mps 630 mmHg 83%
    22:00 -2°C° 0 mm 2 mps 629 mmHg 84%
    23:00 0°C° 0 mm 1 mps 629 mmHg 85%

    29 February, Saturday

    Time Temperature Precipitation Wind Pressure Humidity
    00:00 -1°C° 0 mm 1 mps 629 mmHg 86%
    01:00 -1°C° 0 mm 1 mps 629 mmHg 87%
    02:00 -1°C° 0 mm 1 mps 628 mmHg 87%
    03:00 -2°C° 0 mm 1 mps 628 mmHg 88%
    04:00 -1°C° 0 mm 1 mps 628 mmHg 89%
    05:00 -1°C° 0 mm 1 mps 628 mmHg 89%
    06:00 -1°C° 0 mm 1 mps 628 mmHg 90%
    07:00 0°C° 0.1 mm 1 mps 628 mmHg 89%
    08:00 -1°C° 0.1 mm 2 mps 628 mmHg 88%
    09:00 +1°C° 0.1 mm 2 mps 628 mmHg 87%
    10:00 +2°C° 0.1 mm 2 mps 628 mmHg 82%
    11:00 +2°C° 0.1 mm 3 mps 627 mmHg 78%
    12:00 +3°C° 0.1 mm 3 mps 627 mmHg 73%
    13:00 +3°C° 0 mm 3 mps 627 mmHg 72%
    14:00 +4°C° 0 mm 4 mps 626 mmHg 70%
    15:00 +4°C° 0 mm 4 mps 626 mmHg 68%
    16:00 +3°C° 0.1 mm 3 mps 625 mmHg 75%
    17:00 +2°C° 0.1 mm 3 mps 625 mmHg 81%
    18:00 +1°C° 0.1 mm 2 mps 625 mmHg 88%
    19:00 +1°C° 0.1 mm 2 mps 625 mmHg 88%
    20:00 +2°C° 0.1 mm 1 mps 625 mmHg 87%
    21:00 +2°C° 0.1 mm 1 mps 626 mmHg 87%
    22:00 -1°C° 0.6 mm 2 mps 626 mmHg 86%
    23:00 -2°C° 0.6 mm 3 mps 626 mmHg 86%

    1 March, Sunday

    Time Temperature Precipitation Wind Pressure Humidity
    00:00 -3°C° 0.6 mm 4 mps 626 mmHg 85%
    01:00 -4°C° 0.2 mm 4 mps 626 mmHg 82%
    02:00 -5°C° 0.2 mm 3 mps 626 mmHg 79%
    03:00 -6°C° 0.2 mm 3 mps 626 mmHg 76%
    04:00 -7°C° 0 mm 3 mps 626 mmHg 76%
    05:00 -7°C° 0 mm 3 mps 627 mmHg 75%
    06:00 -7°C° 0 mm 3 mps 627 mmHg 74%
    07:00 -7°C° 0 mm 3 mps 628 mmHg 73%
    08:00 -7°C° 0 mm 3 mps 628 mmHg 71%
    09:00 -6°C° 0 mm 3 mps 629 mmHg 69%
    10:00 -7°C° 0 mm 4 mps 629 mmHg 66%
    11:00 -6°C° 0 mm 5 mps 630 mmHg 63%
    12:00 -6°C° 0 mm 6 mps 630 mmHg 60%
    13:00 -6°C° 0.1 mm 6 mps 630 mmHg 60%
    14:00 -6°C° 0.1 mm 6 mps 630 mmHg 59%
    15:00 -6°C° 0.1 mm 7 mps 630 mmHg 58%
    16:00 -8°C° 0 mm 6 mps 631 mmHg 61%
    17:00 -8°C° 0 mm 5 mps 631 mmHg 64%
    18:00 -9°C° 0 mm 4 mps 631 mmHg 67%
    19:00 -9°C° 0 mm 3 mps 632 mmHg 68%
    20:00 -10°C° 0 mm 3 mps 632 mmHg 68%
    21:00 -9°C° 0 mm 2 mps 632 mmHg 68%
    22:00 -10°C° 0 mm 2 mps 633 mmHg 66%
    23:00 -10°C° 0 mm 2 mps 633 mmHg 64%
    Show more